Date,TemperatureHighF,TemperatureAvgF,TemperatureLowF,DewpointHighF,DewpointAvgF,DewpointLowF,HumidityHigh,HumidityAvg,HumidityLow,PressureMaxIn,PressureMinIn,WindSpeedMaxMPH,WindSpeedAvgMPH,GustSpeedMaxMPH,PrecipitationSumIn
2013-2-1,8,-3,-13,-3,-19,-29,59,45,33,30.13,29.86,9,2,17,0.00
2013-2-2,11,7,1,1,-6,-12,63,54,42,30.00,29.80,4,1,7,0.01
2013-2-3,13,9,3,2,-3,-9,65,56,43,29.93,29.78,10,4,21,0.00
2013-2-4,16,10,4,3,-4,-10,64,52,36,29.90,29.62,4,1,9,0.00
2013-2-5,29,21,9,21,11,-2,79,65,52,29.92,29.52,8,4,14,0.00
2013-2-6,31,18,4,20,8,-6,72,64,60,29.95,29.76,7,3,13,0.00
2013-2-7,26,24,20,18,16,13,76,70,62,30.09,29.81,7,4,12,0.00
2013-2-8,24,24,24,15,14,14,67,66,65,30.13,30.08,4,3,7,0.00
2013-2-9,32,29,27,24,22,20,78,74,72,29.92,29.92,4,3,13,0.00
2013-2-10,34,31,27,29,25,20,83,79,72,29.92,29.92,7,2,14,0.02
2013-2-11,30,23,15,26,14,5,84,68,58,29.92,29.92,0,0,0,0.00
2013-2-12,38,24,15,23,13,4,70,61,49,29.92,29.92,5,2,12,0.07
2013-2-13,42,29,17,28,19,8,82,67,50,29.97,29.92,5,2,10,0.21
2013-2-14,33,25,12,28,14,-5,84,65,35,29.97,29.97,5,0,11,0.01
2013-2-15,15,8,1,-2,-7,-11,61,50,40,29.97,29.97,8,3,16,0.00
2013-2-16,22,8,0,6,-5,-12,64,54,42,29.97,29.97,5,2,9,0.00
2013-2-17,33,21,8,19,9,-6,65,58,52,29.97,29.97,8,4,17,0.00
2013-2-18,33,22,3,27,11,-7,80,63,51,29.97,29.97,14,6,25,0.00
2013-2-19,4,0,-5,-7,-15,-21,61,48,38,29.97,29.97,14,10,27,0.00
2013-2-20,15,3,-10,-5,-14,-26,52,44,36,29.97,29.97,6,2,11,0.00
2013-2-21,21,13,3,4,-3,-10,55,49,42,29.97,29.97,3,1,9,0.00
2013-2-22,28,22,18,20,13,3,74,68,51,29.97,29.97,4,2,9,0.00
2013-2-23,26,19,15,14,9,4,70,65,59,29.97,29.97,4,2,8,0.00
2013-2-24,36,23,13,18,10,2,64,58,44,29.97,29.97,4,1,8,0.06
2013-2-25,38,28,23,22,17,14,73,64,48,29.97,29.97,3,1,5,0.04
2013-2-26,36,29,21,22,18,14,74,65,52,29.97,29.97,8,3,12,0.00
2013-2-27,38,31,27,21,18,15,69,59,44,29.97,29.97,10,6,15,0.00
2013-2-28,28,26,23,17,13,9,63,57,52,30.20,29.94,7,3,11,0.00